Regional Weather Roundup
Issued by NWS Cleveland, OH

Home | Current Version | Previous Version | Graphics & Text | Print | Product List | Glossary On
Versions: 1 2 3 4 5 6 7 8 9 10 11 12 13 14 15 16 17 18 19 20 21 22 23 24 25 26 27 28 29 30 31 32 33 34 35 36 37 38 39 40 41 42 43 44 45 46 47 48 49 50
000
ASUS41 KCLE 242100
RWRCLE
OHIO REGIONAL WEATHER ROUNDUP
NATIONAL WEATHER SERVICE WILMINGTON, OH
500 PM EDT SUN MAY 24 2015

NOTE: "FAIR" INDICATES FEW OR NO CLOUDS BELOW 12,000 FEET WITH NO
SIGNIFICANT WEATHER AND/OR OBSTRUCTIONS TO VISIBILITY.

OHZ001>008-015>018-024>027-034-035-043-044-242200-
   NORTHWEST OHIO

CITY           SKY/WX    TMP DP  RH WIND       PRES   REMARKS
DEFIANCE       PTSUNNY   83  53  35 S8G18     30.12F
FINDLAY        CLOUDY    83  53  35 S10       30.14F
TOLEDO EXPRESS CLOUDY    80  53  39 SW7       30.13F
TOLEDO EXEC    CLOUDY    81  52  36 S12       30.15F
LIMA           PTSUNNY   82  53  36 SW12      30.15F
$$

OHZ009>014-019>023-028>033-038-089-242200-
   NORTHEAST OHIO

CITY           SKY/WX    TMP DP  RH WIND       PRES   REMARKS
CLE-HOPKINS    CLOUDY    78  47  33 S5        30.21F
CLE-LAKEFRONT  CLOUDY    72  54  53 VRB5      30.19S
CUY CO. ARPT   CLOUDY    81  46  30 W12       30.22S
LORAIN-ELYRIA  CLOUDY    79  49  34 S7        30.19F
ASHTABULA      CLOUDY    79  47  32 SW9       30.22F
AKRON-CANTON   PTSUNNY   80  43  26 SW12      30.23F
WOOSTER        NOT AVBL
MANSFIELD      PTSUNNY   78  50  37 S13       30.21F
YOUNGSTOWN     CLOUDY    78  46  32 SW6       30.23F
$$

OHZ042-051>053-060>062-070>072-077>081-242200-
  SOUTHWEST OHIO

CITY           SKY/WX    TMP DP  RH WIND       PRES   REMARKS
CINC-COVINGTON MOSUNNY   83  54  36 SE16G22   30.16F
CINC-LUNKEN    SUNNY     84  55  36 S13       30.16F
HAMILTON       SUNNY     85  53  33 VRB6      30.16F
DAYTON         NOT AVBL
WRIGHT-PAT AFB NOT AVBL
DAYTON GENERAL SUNNY     82  52  35 S14G22    30.16F
WILMINGTON     SUNNY     83  46  27 SW13G23   30.18F
$$

OHZ036-037-039>041-045>050-054>059-063>069-073>076-082>088-242200-
  CENTRAL AND SOUTHEAST OHIO

CITY           SKY/WX    TMP DP  RH WIND       PRES   REMARKS
COLUMBUS       PTSUNNY   82  52  35 S10G18    30.18F
OSU AIRPORT    MOSUNNY   82  51  34 S12       30.17F
BOLTON FIELD   PTSUNNY   82  52  34 S15       30.19F
RICKENBACK AFB NOT AVBL
NEWARK         PTSUNNY   83  52  34 S8        30.19F
MARION         CLOUDY    81  52  36 SW14      30.18F
LANCASTER      PTSUNNY   84  53  34 S14       30.20F
ZANESVILLE     PTSUNNY   80  50  34 S9        30.21F
NEW PHILLY     MOSUNNY   83  47  28 VRB5      30.22F
$$


USA.gov is the U.S. government's official web portal to all federal, state and local government web resources and services.